| time (UTC) | temp F | wind direction | speed knots | gust knots | rain 1hr in | rain 24hr in | rain mn in | humidity % | barometer mb |
| 20260507030023 | 53 | 0.0 | 0.0 | 0.00 | 0.00 | 0.00 | 38 | 1023.8 | |
| 20260507025521 | 54 | 0.0 | 0.0 | 0.00 | 0.00 | 0.00 | 38 | 1023.7 | |
| 20260507025018 | 55 | 0.0 | 0.0 | 0.00 | 0.00 | 0.00 | 38 | 1023.7 | |
| 20260507024535 | 56 | 0.0 | 0.0 | 0.00 | 0.00 | 0.00 | 37 | 1023.5 | |
| 20260507024030 | 57 | 0.0 | 0.0 | 0.00 | 0.00 | 0.00 | 37 | 1023.5 | |
| 20260507023547 | 58 | 0.0 | 0.0 | 0.00 | 0.00 | 0.00 | 36 | 1023.4 | |
| 20260507023044 | 59 | 0.0 | 0.0 | 0.00 | 0.00 | 0.00 | 33 | 1023.4 | |
| 20260507022521 | 59 | 0.0 | 0.0 | 0.00 | 0.00 | 0.00 | 34 | 1023.3 | |
| 20260507022019 | 60 | 0.0 | 0.0 | 0.00 | 0.00 | 0.00 | 34 | 1023.3 | |
| 20260507021518 | 61 | 0.0 | 0.0 | 0.00 | 0.00 | 0.00 | 32 | 1023.3 | |
| 20260507021036 | 62 | 0.0 | 0.0 | 0.00 | 0.00 | 0.00 | 31 | 1023.3 | |
| 20260507020519 | 63 | 0.0 | 0.0 | 0.00 | 0.00 | 0.00 | 31 | 1023.3 | |
| 20260507020036 | 65 | 23 | 0.0 | 0.9 | 0.00 | 0.00 | 0.00 | 30 | 1023.1 |
| 20260507015532 | 66 | 68 | 0.0 | 0.9 | 0.00 | 0.00 | 0.00 | 28 | 1023.1 |
| 20260507015029 | 67 | 23 | 0.9 | 2.6 | 0.00 | 0.00 | 0.00 | 28 | 1023.1 |
| 20260507014526 | 68 | 45 | 0.0 | 1.7 | 0.00 | 0.00 | 0.00 | 27 | 1023.1 |
| 20260507014023 | 65 | 23 | 0.9 | 2.6 | 0.00 | 0.00 | 0.00 | 29 | 1023.1 |
| 20260507013521 | 66 | 23 | 0.0 | 0.9 | 0.00 | 0.00 | 0.00 | 29 | 1022.9 |
| 20260507013019 | 67 | 51 | 0.9 | 1.7 | 0.00 | 0.00 | 0.00 | 31 | 1022.9 |
| 20260507012517 | 67 | 0.0 | 0.0 | 0.00 | 0.00 | 0.00 | 30 | 1022.9 | |
| 20260507012032 | 68 | 294 | 0.9 | 1.7 | 0.00 | 0.00 | 0.00 | 30 | 1022.9 |
| 20260507011530 | 68 | 0.0 | 0.0 | 0.00 | 0.00 | 0.00 | 29 | 1022.9 | |
| 20260507011028 | 68 | 40 | 0.9 | 1.7 | 0.00 | 0.00 | 0.00 | 28 | 1022.7 |
| 20260507010526 | 68 | 58 | 1.7 | 2.6 | 0.00 | 0.00 | 0.00 | 28 | 1022.7 |
| 20260507010023 | 69 | 35 | 1.7 | 3.5 | 0.00 | 0.00 | 0.00 | 28 | 1022.7 |
| 20260507005520 | 70 | 23 | 0.9 | 2.6 | 0.00 | 0.00 | 0.00 | 27 | 1022.7 |
| 20260507005018 | 70 | 48 | 1.7 | 3.5 | 0.00 | 0.00 | 0.00 | 27 | 1022.7 |
| 20260507004515 | 70 | 58 | 0.9 | 2.6 | 0.00 | 0.00 | 0.00 | 25 | 1022.7 |
| 20260507004030 | 70 | 62 | 2.6 | 4.3 | 0.00 | 0.00 | 0.00 | 25 | 1022.7 |
| 20260507003528 | 71 | 60 | 2.6 | 3.5 | 0.00 | 0.00 | 0.00 | 26 | 1022.7 |
| 20260507003026 | 71 | 0.0 | 0.0 | 0.00 | 0.00 | 0.00 | 25 | 1022.7 | |
| 20260507002524 | 71 | 57 | 0.9 | 1.7 | 0.00 | 0.00 | 0.00 | 26 | 1022.7 |
| 20260507002042 | 72 | 103 | 1.7 | 5.2 | 0.00 | 0.00 | 0.00 | 27 | 1022.5 |
| 20260507001540 | 72 | 32 | 2.6 | 3.5 | 0.00 | 0.00 | 0.00 | 26 | 1022.5 |
| 20260507001017 | 72 | 66 | 2.6 | 5.2 | 0.00 | 0.00 | 0.00 | 26 | 1022.4 |
| 20260507000516 | 72 | 41 | 0.9 | 2.6 | 0.00 | 0.00 | 0.00 | 25 | 1022.4 |
| 20260507000019 | 72 | 52 | 2.6 | 4.3 | 0.00 | 0.00 | 0.00 | 25 | 1022.4 |
| 20260506235517 | 72 | 45 | 1.7 | 3.5 | 0.00 | 0.00 | 0.00 | 25 | 1022.4 |
| 20260506235115 | 73 | 83 | 1.7 | 3.5 | 0.00 | 0.00 | 0.00 | 26 | 1022.4 |
| 20260506234531 | 73 | 16 | 1.7 | 3.5 | 0.00 | 0.00 | 0.00 | 26 | 1022.4 |
| 20260506234028 | 73 | 24 | 1.7 | 2.6 | 0.00 | 0.00 | 0.00 | 25 | 1022.4 |
| 20260506233525 | 73 | 69 | 1.7 | 3.5 | 0.00 | 0.00 | 0.00 | 25 | 1022.4 |
| 20260506233022 | 74 | 37 | 2.6 | 3.5 | 0.00 | 0.00 | 0.00 | 26 | 1022.4 |
| 20260506232520 | 74 | 45 | 1.7 | 2.6 | 0.00 | 0.00 | 0.00 | 26 | 1022.4 |
| 20260506232018 | 74 | 56 | 1.7 | 2.6 | 0.00 | 0.00 | 0.00 | 26 | 1022.4 |
| 20260506231537 | 74 | 33 | 1.7 | 2.6 | 0.00 | 0.00 | 0.00 | 26 | 1022.4 |
| 20260506231052 | 74 | 36 | 2.6 | 3.5 | 0.00 | 0.00 | 0.00 | 26 | 1022.4 |
| 20260506230550 | 74 | 53 | 1.7 | 2.6 | 0.00 | 0.00 | 0.00 | 27 | 1022.4 |
| 20260506230027 | 74 | 69 | 2.6 | 3.5 | 0.00 | 0.00 | 0.00 | 26 | 1022.5 |
| 20260506225524 | 74 | 23 | 2.6 | 3.5 | 0.00 | 0.00 | 0.00 | 25 | 1022.5 |
| 20260506225022 | 75 | 93 | 4.3 | 6.1 | 0.00 | 0.00 | 0.00 | 24 | 1022.5 |
| 20260506224559 | 74 | 60 | 2.6 | 3.5 | 0.00 | 0.00 | 0.00 | 25 | 1022.5 |
| 20260506224037 | 74 | 20 | 2.6 | 4.3 | 0.00 | 0.00 | 0.00 | 25 | 1022.5 |
| 20260506223531 | 75 | 337 | 1.7 | 2.6 | 0.00 | 0.00 | 0.00 | 25 | 1022.6 |
| 20260506223029 | 74 | 51 | 2.6 | 3.5 | 0.00 | 0.00 | 0.00 | 25 | 1022.6 |
| 20260506222546 | 75 | 44 | 2.6 | 3.5 | 0.00 | 0.00 | 0.00 | 25 | 1022.6 |
| 20260506222023 | 75 | 28 | 1.7 | 2.6 | 0.00 | 0.00 | 0.00 | 26 | 1022.7 |
| 20260506221521 | 75 | 10 | 2.6 | 4.3 | 0.00 | 0.00 | 0.00 | 25 | 1022.7 |
| 20260506221018 | 74 | 76 | 2.6 | 5.2 | 0.00 | 0.00 | 0.00 | 25 | 1022.7 |
| 20260506220516 | 74 | 18 | 2.6 | 4.3 | 0.00 | 0.00 | 0.00 | 27 | 1022.7 |
| 20260506220019 | 75 | 36 | 2.6 | 4.3 | 0.00 | 0.00 | 0.00 | 26 | 1022.8 |
| 20260506215537 | 75 | 86 | 4.3 | 7.8 | 0.00 | 0.00 | 0.00 | 26 | 1022.8 |
| 20260506215033 | 76 | 60 | 2.6 | 5.2 | 0.00 | 0.00 | 0.00 | 27 | 1022.8 |
| 20260506214530 | 76 | 28 | 1.7 | 1.7 | 0.00 | 0.00 | 0.00 | 27 | 1022.8 |
| 20260506214028 | 76 | 44 | 2.6 | 2.6 | 0.00 | 0.00 | 0.00 | 29 | 1022.8 |
| 20260506213525 | 76 | 28 | 2.6 | 2.6 | 0.00 | 0.00 | 0.00 | 29 | 1022.8 |
| 20260506213023 | 75 | 62 | 2.6 | 3.5 | 0.00 | 0.00 | 0.00 | 29 | 1022.8 |
| 20260506212540 | 76 | 43 | 1.7 | 2.6 | 0.00 | 0.00 | 0.00 | 29 | 1022.8 |
| 20260506212057 | 76 | 54 | 2.6 | 3.5 | 0.00 | 0.00 | 0.00 | 30 | 1022.8 |
| 20260506211515 | 76 | 58 | 1.7 | 3.5 | 0.00 | 0.00 | 0.00 | 30 | 1022.8 |
| 20260506211031 | 76 | 82 | 3.5 | 5.2 | 0.00 | 0.00 | 0.00 | 30 | 1022.8 |
| 20260506210609 | 76 | 64 | 2.6 | 3.5 | 0.00 | 0.00 | 0.00 | 30 | 1022.8 |
| 20260506210026 | 77 | 29 | 2.6 | 3.5 | 0.00 | 0.00 | 0.00 | 30 | 1022.7 |
| 20260506205523 | 75 | 41 | 2.6 | 3.5 | 0.00 | 0.00 | 0.00 | 31 | 1022.7 |
| 20260506205021 | 75 | 57 | 3.5 | 5.2 | 0.00 | 0.00 | 0.00 | 29 | 1022.7 |
| 20260506204518 | 75 | 39 | 2.6 | 4.3 | 0.00 | 0.00 | 0.00 | 30 | 1022.7 |
| 20260506204016 | 75 | 47 | 2.6 | 4.3 | 0.00 | 0.00 | 0.00 | 31 | 1022.7 |
| 20260506203531 | 75 | 57 | 2.6 | 4.3 | 0.00 | 0.00 | 0.00 | 31 | 1022.7 |
| 20260506203028 | 76 | 69 | 3.5 | 5.2 | 0.00 | 0.00 | 0.00 | 28 | 1022.7 |
| 20260506202525 | 75 | 103 | 3.5 | 6.1 | 0.00 | 0.00 | 0.00 | 30 | 1022.7 |
| 20260506202023 | 76 | 51 | 2.6 | 3.5 | 0.00 | 0.00 | 0.00 | 30 | 1022.7 |
| 20260506201521 | 75 | 74 | 1.7 | 3.5 | 0.00 | 0.00 | 0.00 | 29 | 1022.7 |
| 20260506201019 | 75 | 41 | 2.6 | 3.5 | 0.00 | 0.00 | 0.00 | 29 | 1022.7 |
| 20260506200516 | 75 | 72 | 2.6 | 4.3 | 0.00 | 0.00 | 0.00 | 31 | 1022.7 |
| 20260506200020 | 74 | 47 | 2.6 | 5.2 | 0.00 | 0.00 | 0.00 | 33 | 1022.9 |
| 20260506195518 | 73 | 67 | 2.6 | 4.3 | 0.00 | 0.00 | 0.00 | 30 | 1022.9 |
| 20260506195015 | 75 | 51 | 2.6 | 3.5 | 0.00 | 0.00 | 0.00 | 31 | 1022.9 |
| 20260506194551 | 74 | 36 | 2.6 | 4.3 | 0.00 | 0.00 | 0.00 | 31 | 1022.8 |
| 20260506194028 | 73 | 47 | 1.7 | 3.5 | 0.00 | 0.00 | 0.00 | 34 | 1022.8 |
| 20260506193526 | 72 | 63 | 3.5 | 4.3 | 0.00 | 0.00 | 0.00 | 34 | 1022.8 |
| 20260506193024 | 75 | 55 | 4.3 | 7.0 | 0.00 | 0.00 | 0.00 | 34 | 1022.8 |
| 20260506192521 | 73 | 37 | 1.7 | 2.6 | 0.00 | 0.00 | 0.00 | 36 | 1022.8 |
| 20260506192019 | 73 | 91 | 4.3 | 7.0 | 0.00 | 0.00 | 0.00 | 34 | 1022.8 |
| 20260506191516 | 73 | 82 | 5.2 | 7.0 | 0.00 | 0.00 | 0.00 | 36 | 1022.8 |
| 20260506191033 | 72 | 59 | 4.3 | 7.0 | 0.00 | 0.00 | 0.00 | 37 | 1022.8 |
| 20260506190530 | 71 | 63 | 2.6 | 3.5 | 0.00 | 0.00 | 0.00 | 37 | 1022.8 |
| 20260506190027 | 72 | 65 | 1.7 | 2.6 | 0.00 | 0.00 | 0.00 | 36 | 1022.9 |
| 20260506185545 | 71 | 63 | 2.6 | 3.5 | 0.00 | 0.00 | 0.00 | 38 | 1022.9 |
| 20260506185043 | 72 | 87 | 4.3 | 7.0 | 0.00 | 0.00 | 0.00 | 37 | 1022.9 |
| 20260506184520 | 71 | 23 | 2.6 | 4.3 | 0.00 | 0.00 | 0.00 | 38 | 1022.9 |
| 20260506184018 | 74 | 42 | 2.6 | 2.6 | 0.00 | 0.00 | 0.00 | 37 | 1022.9 |
| 20260506183516 | 72 | 57 | 1.7 | 2.6 | 0.00 | 0.00 | 0.00 | 37 | 1023.1 |
| 20260506183031 | 72 | 87 | 3.5 | 5.2 | 0.00 | 0.00 | 0.00 | 37 | 1023.1 |
| 20260506182529 | 72 | 39 | 3.5 | 5.2 | 0.00 | 0.00 | 0.00 | 38 | 1023.0 |
| 20260506182027 | 72 | 90 | 2.6 | 4.3 | 0.00 | 0.00 | 0.00 | 37 | 1022.9 |
| 20260506181525 | 72 | 39 | 3.5 | 3.5 | 0.00 | 0.00 | 0.00 | 38 | 1022.9 |
| 20260506181023 | 72 | 43 | 2.6 | 4.3 | 0.00 | 0.00 | 0.00 | 38 | 1022.8 |
| 20260506180520 | 72 | 28 | 1.7 | 2.6 | 0.00 | 0.00 | 0.00 | 38 | 1022.8 |
| 20260506180018 | 72 | 27 | 1.7 | 2.6 | 0.00 | 0.00 | 0.00 | 38 | 1022.7 |
| 20260506175521 | 71 | 46 | 2.6 | 5.2 | 0.00 | 0.00 | 0.00 | 38 | 1022.7 |
| 20260506175018 | 71 | 61 | 1.7 | 4.3 | 0.00 | 0.00 | 0.00 | 38 | 1022.7 |
| 20260506174516 | 71 | 35 | 2.6 | 5.2 | 0.00 | 0.00 | 0.00 | 38 | 1022.6 |
| 20260506174032 | 71 | 97 | 7.0 | 8.7 | 0.00 | 0.00 | 0.00 | 37 | 1022.6 |
| 20260506173530 | 70 | 30 | 1.7 | 2.6 | 0.00 | 0.00 | 0.00 | 39 | 1022.5 |
| 20260506173028 | 71 | 82 | 5.2 | 6.1 | 0.00 | 0.00 | 0.00 | 38 | 1022.5 |
| 20260506172525 | 70 | 89 | 2.6 | 4.3 | 0.00 | 0.00 | 0.00 | 39 | 1022.4 |
| 20260506172024 | 70 | 5 | 2.6 | 3.5 | 0.00 | 0.00 | 0.00 | 39 | 1022.4 |
| 20260506171521 | 69 | 77 | 2.6 | 4.3 | 0.00 | 0.00 | 0.00 | 39 | 1022.4 |
| 20260506171019 | 68 | 81 | 1.7 | 4.3 | 0.00 | 0.00 | 0.00 | 40 | 1022.5 |
| 20260506170516 | 69 | 38 | 3.5 | 5.2 | 0.00 | 0.00 | 0.00 | 40 | 1022.5 |
| 20260506170053 | 68 | 68 | 1.7 | 5.2 | 0.00 | 0.00 | 0.00 | 40 | 1022.3 |
| 20260506165530 | 68 | 24 | 1.7 | 3.5 | 0.00 | 0.00 | 0.00 | 40 | 1022.2 |
| 20260506165027 | 68 | 44 | 2.6 | 4.3 | 0.00 | 0.00 | 0.00 | 41 | 1022.2 |
| 20260506164545 | 67 | 65 | 2.6 | 5.2 | 0.00 | 0.00 | 0.00 | 41 | 1022.2 |
| 20260506164042 | 68 | 87 | 3.5 | 4.3 | 0.00 | 0.00 | 0.00 | 40 | 1022.2 |
| 20260506163520 | 68 | 57 | 1.7 | 3.5 | 0.00 | 0.00 | 0.00 | 40 | 1022.1 |
| 20260506163018 | 67 | 82 | 3.5 | 5.2 | 0.00 | 0.00 | 0.00 | 41 | 1022.1 |
| 20260506162522 | 66 | 351 | 1.7 | 2.6 | 0.00 | 0.00 | 0.00 | 42 | 1022.1 |
| 20260506162029 | 65 | 91 | 0.9 | 2.6 | 0.00 | 0.00 | 0.00 | 43 | 1022.0 |
| 20260506161527 | 66 | 113 | 1.7 | 3.5 | 0.00 | 0.00 | 0.00 | 43 | 1022.0 |
| 20260506161025 | 66 | 23 | 0.0 | 1.7 | 0.00 | 0.00 | 0.00 | 42 | 1022.0 |
| 20260506160522 | 64 | 105 | 1.7 | 2.6 | 0.00 | 0.00 | 0.00 | 43 | 1022.0 |
| 20260506160020 | 65 | 79 | 1.7 | 3.5 | 0.00 | 0.00 | 0.00 | 43 | 1022.0 |
| 20260506155517 | 65 | 23 | 0.9 | 1.7 | 0.00 | 0.00 | 0.00 | 43 | 1022.0 |
| 20260506155015 | 63 | 90 | 0.9 | 2.6 | 0.00 | 0.00 | 0.00 | 46 | 1022.0 |
| 20260506154519 | 63 | 73 | 2.6 | 3.5 | 0.00 | 0.00 | 0.00 | 45 | 1021.9 |
| 20260506154017 | 61 | 97 | 1.7 | 2.6 | 0.00 | 0.00 | 0.00 | 46 | 1021.9 |
| 20260506153533 | 62 | 100 | 1.7 | 3.5 | 0.00 | 0.00 | 0.00 | 45 | 1021.8 |
| 20260506153030 | 61 | 92 | 0.9 | 1.7 | 0.00 | 0.00 | 0.00 | 46 | 1021.8 |
| 20260506152528 | 61 | 104 | 1.7 | 2.6 | 0.00 | 0.00 | 0.00 | 47 | 1021.8 |
| 20260506152026 | 58 | 158 | 0.9 | 1.7 | 0.00 | 0.00 | 0.00 | 48 | 1021.8 |
| 20260506151523 | 60 | 104 | 1.7 | 2.6 | 0.00 | 0.00 | 0.00 | 47 | 1021.8 |
| 20260506151021 | 59 | 113 | 0.0 | 1.7 | 0.00 | 0.00 | 0.00 | 48 | 1021.6 |
| 20260506150559 | 58 | 76 | 0.0 | 0.9 | 0.00 | 0.00 | 0.00 | 49 | 1021.6 |
| 20260506150016 | 57 | 0.0 | 0.0 | 0.00 | 0.00 | 0.00 | 49 | 1021.6 | |
| 20260506145532 | 55 | 0.0 | 0.0 | 0.00 | 0.00 | 0.00 | 52 | 1021.6 | |
| 20260506145030 | 54 | 0.0 | 0.0 | 0.00 | 0.00 | 0.00 | 53 | 1021.6 | |
| 20260506144528 | 51 | 0.0 | 0.0 | 0.00 | 0.00 | 0.00 | 56 | 1021.4 | |
| 20260506144025 | 49 | 0.0 | 0.0 | 0.00 | 0.00 | 0.00 | 59 | 1021.4 | |
| 20260506143543 | 48 | 0.0 | 0.0 | 0.00 | 0.00 | 0.00 | 59 | 1021.4 | |
| 20260506143021 | 47 | 0.0 | 0.0 | 0.00 | 0.00 | 0.00 | 59 | 1021.4 | |
| 20260506142519 | 48 | 0.0 | 0.0 | 0.00 | 0.00 | 0.00 | 60 | 1021.3 | |
| 20260506142017 | 46 | 0.0 | 0.0 | 0.00 | 0.00 | 0.00 | 61 | 1021.2 | |
| 20260506141532 | 46 | 0.0 | 0.0 | 0.00 | 0.00 | 0.00 | 61 | 1021.2 | |
| 20260506141030 | 46 | 0.0 | 0.0 | 0.00 | 0.00 | 0.00 | 61 | 1021.0 | |
| 20260506140527 | 45 | 0.0 | 0.0 | 0.00 | 0.00 | 0.00 | 62 | 1021.0 | |
| 20260506140025 | 43 | 0.0 | 0.0 | 0.00 | 0.00 | 0.00 | 64 | 1020.9 | |
| 20260506135523 | 42 | 0.0 | 0.0 | 0.00 | 0.00 | 0.00 | 65 | 1020.8 | |
| 20260506135040 | 42 | 0.0 | 0.0 | 0.00 | 0.00 | 0.00 | 66 | 1020.8 | |
| 20260506134518 | 38 | 0.0 | 0.0 | 0.00 | 0.00 | 0.00 | 73 | 1020.8 | |
| 20260506134016 | 37 | 0.0 | 0.0 | 0.00 | 0.00 | 0.00 | 74 | 1020.8 | |
| 20260506133520 | 36 | 0.0 | 0.0 | 0.00 | 0.00 | 0.00 | 75 | 1020.5 | |
| 20260506133038 | 35 | 0.0 | 0.0 | 0.00 | 0.00 | 0.00 | 75 | 1020.5 | |
| 20260506132516 | 35 | 0.0 | 0.0 | 0.00 | 0.00 | 0.00 | 75 | 1020.4 | |
| 20260506132032 | 35 | 0.0 | 0.0 | 0.00 | 0.00 | 0.00 | 75 | 1020.4 | |
| 20260506131530 | 35 | 0.0 | 0.0 | 0.00 | 0.00 | 0.00 | 75 | 1020.4 | |
| 20260506131108 | 35 | 0.0 | 0.0 | 0.00 | 0.00 | 0.00 | 75 | 1020.2 | |
| 20260506130526 | 34 | 0.0 | 0.0 | 0.00 | 0.00 | 0.00 | 75 | 1020.2 | |
| 20260506130024 | 34 | 0.0 | 0.0 | 0.00 | 0.00 | 0.00 | 75 | 1020.0 | |
| 20260506125522 | 34 | 0.0 | 0.0 | 0.00 | 0.00 | 0.00 | 74 | 1020.0 | |
| 20260506125019 | 34 | 0.0 | 0.0 | 0.00 | 0.00 | 0.00 | 74 | 1020.0 | |
| 20260506124517 | 35 | 0.0 | 0.0 | 0.00 | 0.00 | 0.00 | 74 | 1019.6 | |
| 20260506124053 | 34 | 0.0 | 0.0 | 0.00 | 0.00 | 0.00 | 74 | 1019.6 | |
| 20260506123532 | 35 | 0.0 | 0.0 | 0.00 | 0.00 | 0.00 | 74 | 1019.6 | |
| 20260506123028 | 35 | 0.0 | 0.0 | 0.00 | 0.00 | 0.00 | 73 | 1019.6 | |
| 20260506122526 | 35 | 0.0 | 0.0 | 0.00 | 0.00 | 0.00 | 72 | 1019.5 | |
| 20260506122024 | 35 | 45 | 0.0 | 0.9 | 0.00 | 0.00 | 0.00 | 71 | 1019.4 |
| 20260506121522 | 36 | 0.0 | 0.0 | 0.00 | 0.00 | 0.00 | 72 | 1019.4 | |
| 20260506121020 | 36 | 0.0 | 0.0 | 0.00 | 0.00 | 0.00 | 71 | 1019.3 | |
| 20260506120518 | 36 | 0.0 | 0.0 | 0.00 | 0.00 | 0.00 | 71 | 1019.3 | |
| 20260506120016 | 36 | 0.0 | 0.0 | 0.00 | 0.00 | 0.00 | 70 | 1019.3 | |
| 20260506115551 | 37 | 0.0 | 0.0 | 0.00 | 0.00 | 0.00 | 70 | 1019.3 | |
| 20260506115030 | 37 | 0.0 | 0.0 | 0.00 | 0.00 | 0.00 | 69 | 1019.3 | |
| 20260506114528 | 37 | 0.0 | 0.0 | 0.00 | 0.00 | 0.00 | 69 | 1019.2 | |
| 20260506114025 | 38 | 0.0 | 0.0 | 0.00 | 0.00 | 0.00 | 69 | 1019.2 | |
| 20260506113523 | 38 | 0.0 | 0.0 | 0.00 | 0.00 | 0.00 | 70 | 1019.2 | |
| 20260506113021 | 38 | 0.0 | 0.0 | 0.00 | 0.00 | 0.00 | 70 | 1019.2 | |
| 20260506112519 | 38 | 0.0 | 0.0 | 0.00 | 0.00 | 0.00 | 70 | 1019.2 | |
| 20260506112017 | 38 | 0.0 | 0.0 | 0.00 | 0.00 | 0.00 | 70 | 1019.1 | |
| 20260506111520 | 39 | 0.0 | 0.0 | 0.00 | 0.00 | 0.00 | 70 | 1019.1 | |
| 20260506111018 | 39 | 0.0 | 0.0 | 0.00 | 0.00 | 0.00 | 69 | 1019.1 | |
| 20260506110517 | 39 | 0.0 | 0.0 | 0.00 | 0.00 | 0.00 | 69 | 1019.1 | |
| 20260506110030 | 39 | 0.0 | 0.0 | 0.00 | 0.00 | 0.00 | 69 | 1018.8 | |
| 20260506105528 | 40 | 0.0 | 0.0 | 0.00 | 0.00 | 0.00 | 67 | 1018.8 | |
| 20260506105027 | 40 | 0.0 | 0.0 | 0.00 | 0.00 | 0.00 | 66 | 1018.8 | |
| 20260506104524 | 40 | 0.0 | 0.0 | 0.00 | 0.00 | 0.00 | 66 | 1018.7 | |
| 20260506104022 | 40 | 0.0 | 0.0 | 0.00 | 0.00 | 0.00 | 66 | 1018.7 | |
| 20260506103520 | 41 | 0.0 | 0.0 | 0.00 | 0.00 | 0.00 | 64 | 1018.7 | |
| 20260506103017 | 41 | 0.0 | 0.0 | 0.00 | 0.00 | 0.00 | 64 | 1018.7 | |
| 20260506102515 | 41 | 113 | 0.0 | 1.7 | 0.00 | 0.00 | 0.00 | 64 | 1018.7 |
| 20260506102031 | 41 | 0.0 | 0.0 | 0.00 | 0.00 | 0.00 | 63 | 1018.6 | |
| 20260506101529 | 41 | 0.0 | 0.0 | 0.00 | 0.00 | 0.00 | 63 | 1018.6 | |
| 20260506101047 | 41 | 0.0 | 0.0 | 0.00 | 0.00 | 0.00 | 62 | 1018.3 | |
| 20260506100525 | 41 | 0.0 | 0.0 | 0.00 | 0.00 | 0.00 | 62 | 1018.3 | |
| 20260506095521 | 42 | 180 | 0.0 | 0.9 | 0.00 | 0.00 | 0.00 | 60 | 1018.3 |
| 20260506095019 | 42 | 0.0 | 0.0 | 0.00 | 0.00 | 0.00 | 59 | 1018.3 | |
| 20260506094517 | 43 | 0.0 | 0.0 | 0.00 | 0.00 | 0.00 | 58 | 1018.3 | |
| 20260506094015 | 43 | 0.0 | 0.0 | 0.00 | 0.00 | 0.00 | 57 | 1018.3 | |
| 20260506093530 | 44 | 0.0 | 0.0 | 0.00 | 0.00 | 0.00 | 57 | 1018.0 | |
| 20260506093028 | 44 | 0.0 | 0.0 | 0.00 | 0.00 | 0.00 | 56 | 1018.0 | |
| 20260506092526 | 44 | 0.0 | 0.0 | 0.00 | 0.00 | 0.00 | 56 | 1018.1 | |
| 20260506092024 | 45 | 0.0 | 0.0 | 0.00 | 0.00 | 0.00 | 56 | 1018.1 | |
| 20260506091522 | 45 | 118 | 0.9 | 2.6 | 0.00 | 0.00 | 0.00 | 55 | 1018.1 |
| 20260506091020 | 45 | 124 | 0.0 | 0.9 | 0.00 | 0.00 | 0.00 | 54 | 1018.0 |
| 20260506090537 | 46 | 0.0 | 0.0 | 0.00 | 0.00 | 0.00 | 53 | 1018.0 | |
| 20260506090015 | 46 | 0.0 | 0.0 | 0.00 | 0.00 | 0.00 | 53 | 1017.9 | |
| 20260506085520 | 47 | 0.0 | 0.0 | 0.00 | 0.00 | 0.00 | 51 | 1017.9 | |
| 20260506085018 | 47 | 180 | 0.0 | 0.9 | 0.00 | 0.00 | 0.00 | 51 | 1017.9 |
| 20260506084515 | 47 | 217 | 0.9 | 2.6 | 0.00 | 0.00 | 0.00 | 51 | 1017.9 |
| 20260506084032 | 48 | 128 | 1.7 | 2.6 | 0.00 | 0.00 | 0.00 | 50 | 1017.9 |
| 20260506083530 | 48 | 142 | 0.9 | 2.6 | 0.00 | 0.00 | 0.00 | 50 | 1017.8 |
| 20260506083028 | 48 | 254 | 1.7 | 2.6 | 0.00 | 0.00 | 0.00 | 50 | 1017.8 |
| 20260506082526 | 48 | 0.0 | 0.0 | 0.00 | 0.00 | 0.00 | 50 | 1017.9 | |
| 20260506082024 | 48 | 262 | 0.9 | 3.5 | 0.00 | 0.00 | 0.00 | 49 | 1017.9 |
| 20260506081521 | 48 | 311 | 0.9 | 1.7 | 0.00 | 0.00 | 0.00 | 48 | 1017.9 |
| 20260506081020 | 49 | 203 | 0.0 | 3.5 | 0.00 | 0.00 | 0.00 | 47 | 1017.7 |
| 20260506080518 | 49 | 0.0 | 0.0 | 0.00 | 0.00 | 0.00 | 47 | 1017.7 | |
| 20260506073523 | 49 | 283 | 1.7 | 3.5 | 0.00 | 0.00 | 0.00 | 47 | 1017.5 |
| 20260506073041 | 49 | 0.0 | 0.0 | 0.00 | 0.00 | 0.00 | 46 | 1017.5 | |
| 20260506072520 | 50 | 0.0 | 0.0 | 0.00 | 0.00 | 0.00 | 46 | 1017.5 | |
| 20260506072017 | 50 | 0.0 | 0.0 | 0.00 | 0.00 | 0.00 | 45 | 1017.4 | |
| 20260506071516 | 51 | 225 | 0.9 | 1.7 | 0.00 | 0.00 | 0.00 | 44 | 1017.4 |
| 20260506071051 | 51 | 229 | 0.9 | 2.6 | 0.00 | 0.00 | 0.00 | 43 | 1017.5 |
| 20260506070529 | 51 | 220 | 1.7 | 3.5 | 0.00 | 0.00 | 0.00 | 43 | 1017.5 |
| 20260506062039 | 52 | 215 | 2.6 | 5.2 | 0.00 | 0.00 | 0.00 | 43 | 1017.2 |
| 20260506061538 | 52 | 248 | 2.6 | 2.6 | 0.00 | 0.00 | 0.00 | 43 | 1017.2 |
| 20260506061015 | 52 | 238 | 1.7 | 3.5 | 0.00 | 0.00 | 0.00 | 43 | 1016.9 |
| 20260506060532 | 52 | 221 | 2.6 | 3.5 | 0.00 | 0.00 | 0.00 | 43 | 1016.9 |
| 20260506051024 | 53 | 218 | 1.7 | 3.5 | 0.00 | 0.00 | 0.00 | 40 | 1016.9 |
| 20260506050521 | 52 | 217 | 0.9 | 4.3 | 0.00 | 0.00 | 0.00 | 40 | 1016.9 |
| 20260506045030 | 51 | 254 | 0.0 | 1.7 | 0.00 | 0.00 | 0.00 | 42 | 1016.9 |
| 20260506044527 | 51 | 225 | 0.0 | 2.6 | 0.00 | 0.00 | 0.00 | 42 | 1016.7 |
| 20260506044024 | 51 | 270 | 0.0 | 0.9 | 0.00 | 0.00 | 0.00 | 43 | 1016.7 |
| 20260506043522 | 51 | 225 | 0.0 | 0.9 | 0.00 | 0.00 | 0.00 | 43 | 1016.6 |
| 20260506043020 | 51 | 270 | 0.9 | 1.7 | 0.00 | 0.00 | 0.00 | 43 | 1016.6 |
| 20260506042537 | 51 | 225 | 0.9 | 1.7 | 0.00 | 0.00 | 0.00 | 43 | 1016.6 |
| 20260506042020 | 51 | 203 | 0.0 | 0.9 | 0.00 | 0.00 | 0.00 | 44 | 1016.3 |
| 20260506041518 | 51 | 0.0 | 0.0 | 0.00 | 0.00 | 0.00 | 45 | 1016.3 | |
| 20260506041016 | 51 | 0.0 | 0.0 | 0.00 | 0.00 | 0.00 | 45 | 1016.3 | |
| 20260506040611 | 52 | 203 | 0.0 | 1.7 | 0.00 | 0.00 | 0.00 | 46 | 1016.3 |
| 20260506040031 | 52 | 0.0 | 0.0 | 0.00 | 0.00 | 0.00 | 45 | 1016.1 | |
| 20260506035525 | 53 | 0.0 | 0.0 | 0.00 | 0.00 | 0.00 | 43 | 1016.1 | |
| 20260506035043 | 53 | 203 | 0.0 | 1.7 | 0.00 | 0.00 | 0.00 | 43 | 1016.1 |
| 20260506034521 | 53 | 0.0 | 0.0 | 0.00 | 0.00 | 0.00 | 42 | 1015.9 | |
| 20260506034018 | 54 | 270 | 0.0 | 2.6 | 0.00 | 0.00 | 0.00 | 42 | 1015.9 |
| 20260506033515 | 54 | 0.0 | 0.0 | 0.00 | 0.00 | 0.00 | 41 | 1015.7 | |
| 20260506033052 | 55 | 270 | 0.0 | 1.7 | 0.00 | 0.00 | 0.00 | 40 | 1015.7 |
| 20260506032529 | 55 | 246 | 1.7 | 2.6 | 0.00 | 0.00 | 0.00 | 40 | 1015.6 |
| 20260506032027 | 55 | 234 | 0.9 | 1.7 | 0.00 | 0.00 | 0.00 | 40 | 1015.5 |
| 20260506031544 | 56 | 180 | 0.9 | 2.6 | 0.00 | 0.00 | 0.00 | 40 | 1015.5 |
| 20260506031021 | 56 | 225 | 0.0 | 2.6 | 0.00 | 0.00 | 0.00 | 40 | 1015.3 |
| 20260506030519 | 56 | 225 | 0.0 | 1.7 | 0.00 | 0.00 | 0.00 | 40 | 1015.3 |